Location: Champignolles
(47.0543°N, 4.5663°E)
Time: 07:36:22
(UTC+00:00)

Cosmos 923 Rocket - Pass Details

Date: 13 April 2021
Orbit: 759 x 785 km, 74.0° (Epoch: 13 May)

Event Time Altitude Azimuth Distance (km) Brightness Sun altitude
Rises 02:27:58 0° 341° (NNW) 3,229 7.6 -22.9°
Reaches altitude 10° 02:30:25 10° 347° (NNW) 2,300 6.8 -22.6°
Maximum altitude 02:35:29 49° 62° (ENE) 978 4.9 -22.0°
Drops below altitude 10° 02:40:31 10° 138° (SE) 2,294 6.5 -21.3°
Sets 02:42:57 0° 143° (SE) 3,220 7.2 -21.0°
